Burlington, IA

6:16 PM CDT on July 20, 2017 (GMT -0500)
Burlington Regional

Weather History for KBRL - August, 2012

Change the Weather History Date:

Wednesday, August 15, 2012

  Actual Average Record
Temperature  
Mean Temperature 80 °F 75 °F  
Max Temperature 88 °F 85 °F 102 °F (1913)
Min Temperature 72 °F 66 °F 46 °F (2004)
Degree Days  
Heating Degree Days 0 0  
Month to date heating degree days 0 0  
Since 1 June heating degree days 9 14  
Since 1 July heating degree days 0 1  
Cooling Degree Days 15 10  
Month to date cooling degree days 124 164  
Year to date cooling degree days 1059 893  
Since 1 June cooling degree days 864 790  
Growing Degree Days 30 (Base 50)    
Moisture  
Dew Point 59 °F    
Average Humidity 52    
Maximum Humidity 68    
Minimum Humidity 36    
Precipitation  
Precipitation T in 0.14 in 4.21 in (1952)
Month to date precipitation 0.37 1.98  
Year to date precipitation 13.90 24.96  
Sea Level Pressure  
Sea Level Pressure 29.91 in    
Wind  
Wind Speed 10 mph (South)    
Max Wind Speed 16 mph    
Max Gust Speed 18 mph    
Visibility 10 miles    
Events      
T = Trace of Precipitation, MM = Missing Value Source: NWS Daily Summary

Daily Weather History Graph

Daily Weather History Graph

Search for Another Location

Airport or City:

Trip Planner

Search our weather history database for the weather conditions in past years. The results will help you decide how hot, cold, wet, or windy it might be!

Date:

Astronomy

Aug. 15, 2012 Rise Set
Actual Time 6:15 AM CDT 8:01 PM CDT
Civil Twilight 5:45 AM CDT 8:31 PM CDT
Nautical Twilight 5:10 AM CDT 9:06 PM CDT
Astronomical Twilight 4:31 AM CDT 9:44 PM CDT
Moon 4:11 AM CDT (8/15) 6:35 PM CDT (8/15)
Length of Visible Light 14h 45m
Length of Day
13h 46m
Waning Crescent, 4% of the Moon is Illuminated
Aug 15
Waning Crescent
Aug 17
New
Aug 24
First Quarter
Aug 31
Full
Sep 8
Last Quarter

Hourly Weather History & Observations

Time (CDT) Temp. Heat Index Dew Point Humidity Pressure Visibility Wind Dir Wind Speed Gust Speed Precip Events Conditions
12:53 AM - - - N/A% 29.94 in - North - - N/A   Unknown
1:53 AM - - - N/A% 29.94 in - North - - N/A   Unknown
2:53 AM - - - N/A% 29.94 in - North - - N/A   Unknown
3:53 AM - - - N/A% 29.95 in - North - - N/A   Unknown
4:53 AM - - - N/A% 29.96 in - North - - N/A   Unknown
5:53 AM - - - N/A% 29.96 in - North - - N/A   Unknown
6:53 AM - - - N/A% 29.97 in - North - - N/A   Unknown
7:53 AM - - - N/A% 29.98 in - North - - N/A   Unknown
8:53 AM - - - N/A% 29.98 in - North - - N/A   Unknown
9:53 AM 72.0 °F - 61.0 °F 68% 29.97 in - SSW 5.8 mph - N/A   Unknown
10:53 AM 77.0 °F - 57.9 °F 52% 29.96 in 10.0 mi South 13.8 mph - N/A   Clear
12:53 PM 81.0 °F 81.3 °F 59.0 °F 47% 29.94 in 10.0 mi Variable 6.9 mph 18.4 mph N/A   Clear
1:53 PM 84.0 °F 83.8 °F 59.0 °F 43% 29.92 in 10.0 mi South 9.2 mph 17.3 mph N/A   Clear
2:53 PM 84.9 °F 84.4 °F 59.0 °F 41% 29.89 in 10.0 mi SSW 16.1 mph - N/A   Clear
3:53 PM 87.1 °F 86.1 °F 57.9 °F 37% 29.88 in 10.0 mi South 13.8 mph - N/A   Clear
4:53 PM 88.0 °F 86.9 °F 57.9 °F 36% 29.85 in 10.0 mi South 12.7 mph - N/A   Clear
5:53 PM 87.1 °F 86.1 °F 57.9 °F 37% 29.85 in 10.0 mi South 9.2 mph - N/A   Clear
6:53 PM 84.0 °F 83.8 °F 59.0 °F 43% 29.84 in 10.0 mi South 6.9 mph - N/A   Clear
7:53 PM 81.0 °F 81.7 °F 61.0 °F 50% 29.84 in 10.0 mi SSE 6.9 mph - N/A   Clear
8:53 PM 79.0 °F - 60.1 °F 52% 29.84 in 10.0 mi SSE 9.2 mph - N/A   Clear
9:53 PM 78.1 °F - 60.1 °F 54% 29.85 in 10.0 mi South 10.4 mph - N/A   Clear
10:53 PM 77.0 °F - 60.1 °F 56% 29.83 in 10.0 mi South 11.5 mph - N/A   Clear
11:53 PM 77.0 °F - 59.0 °F 54% 29.85 in 10.0 mi South 10.4 mph - N/A   Clear